Погода Лодейное Поле

Погода Лодейное Поле : погода сейчас, прогноз погоды и архив. Всё, что Вы хотите узнать о погоде Лодейное Поле!

Хотите узнать прогноз погоды Лодейное Поле? Тогда Вам сюда: Погода Лодейное Поле

Поиск расширенной информации на нашем сайте:

Другие новости

Новости СМИ2

Главная страница сайта

Новости сайта

02.10.2013

Напоминаем, что на нашем новом сайте вы можете получить высокодетализированные прогнозы погоды по пунктам России, СНГ и мира (включающие важные для авиации метеовеличины, такие как направление и скорость ветра, видимость, явления погоды, количество и форма облачности, нижняя и верхняя граница облачности), а также ознакомиться с разнообразными материалами по авиационной метеорологии и подборкой полезных ссылок на эту тему.

Сайт Метеоцентр.Азия посвящён разработке технологий оптимизации авиаметеорологического обслуживания, включая проектирование и перспективное создание нескольких автоматизированных авиаметеорологических систем:
- система выпуска высокодетальных прогностических карт явлений погоды для нижнего воздушного пространства по России и ближнему зарубежью;
- система верификации прогнозов TAF (выпускаемых синоптиками официальных АМСГ РФ и ближнего зарубежья) и AUTOTAF (выпускаемых сайтом Метеоцентр.Азия) - выявление ошибок, онлайн-сопоставление с фактической погодой METAR, автоматическое внесение коррективов в прогнозы при резком отклонении фактической погоды от прогноза, подсчёт оправдываемости прогнозов по элементам и в целом;
- система обработки, анализа и отображения авиаметеорологической информации для применения провайдерами метеорологической информации.

Рекомендуем: Расходные материалы. Мы знаем, что мфу ricoh в рассрочку. Онлайн-заказ.

Погода Лодейное Поле - сегодня

Время (UTC), дата Ветер
(°,м/с) 
Видим.   Явления Облачность Т
(°С)
Тd
(°С)
f(%) Тe
(°С)
Pmin
(гПа)
dP
(гПа)
Po
(мм)
O2
(г/м3)
Тmin Tmax R s Состояние
почвы
03 26.04.17 140 (ЮВ) 3{11}  10 км  слаб. ливневой дождь  10/10 400 м кучево-дожд. 
[Cb cap]
+3 +2 93 +2  997.5  -4.2  746  297  +3       
06 26.04.17 240 (ЮЗ) 5-12{12}  4000 м  ливневой дождь  10/10 360 м кучево-дожд. 
[Cb cap]
+4.4 +3.7 95 +2  997  -0.5  746  295  +2.7    мокрый или
старый снег
10-40% 
09 26.04.17 230 (ЮЗ) 4-10{12}  10 км  {ливн. осадки}  9/9 450 м кучево-дожд. 
[Cb cap]
+4.3 +0.8 78 +3  1000.4  3.4  748  297           
12 26.04.17 220 (ЮЗ) 2{10}  10 км  {ливн. осадки}  8/8 540 м кучево-дожд. 
[Cb cap]
+7.1 -1.7 53 +7  1000.6  0.2  748  294           
15 26.04.17 190 (Ю) 10 км  {ливн. осадки}  9/6 600 м кучево-дожд., средняя 
[Cb cap|Ac trans]
+7.4 -2.1 51 +7  1000.2  -0.4  748  294         
18 26.04.17 180 (Ю) 2{15}  10 км  {ливн. осадки}  10/6 600 м кучево-дожд., средняя 
[Cb cap|Ac As]
+1.7 +0.4 91 +1  1001.3  1.1  749  300    +7.6  0.8     
21 26.04.17 200 (Ю) 10 км  в посл. час ливневой дождь  10/10 400 м кучево-дожд. 
[Cb cap]
+2.8 +1.3 90 +1  1002.5  1.1  750  299           
00 27.04.17 210 (ЮЗ) 4{10}  10 км  {ливн. осадки}  10/10 420 м кучево-дожд. 
[Cb cap]
+3.1 +0.4 82 +1  1004.2  1.7  751  299           
03 27.04.17 210 (ЮЗ) 4-10{11}  10 км    4/4 600 м 
[Sc]
+2 -1 80 1005.3  1.1  752  301  +1.7    0.8     
06 27.04.17 210 (ЮЗ) 5-10{12}  10 км    4/3 600 м верхняя 
[Sc|Ci sp]
+4.6 -1.1 66 +2  1006.9  1.6  753  299  +1.7    0.5  мокрый или
старый снег
10-40% 
09 27.04.17 230 (ЮЗ) 6-11{14}  10 км    4/4 600 м 
[Cu med, cong]
+7.6 -3 47 +6  1008.3  1.5  754  296           
12 27.04.17 230 (ЮЗ) 5-12{15}  10 км    6/6 300 м 
[Cu med, cong]
+8.4 -3 44 +7  1009.6  1.3  755  296           
15 27.04.17 230 (ЮЗ) 4-10{12}  10 км    3/3 600 м верхняя 
[Cu med, cong|Ci fib]
+7.9 -2.9 46 +7  1011  1.3  756  296           
18 27.04.17 220 (ЮЗ) 2{10}  10 км    3/0 верхняя 
[Ci sp]
+4.8 -1.3 65 +4  1012.5  1.5  757  300    +8.6       
21 27.04.17 210 (ЮЗ) 10 км    ясно 
+1.1 -1.3 84 1014.1  1.6  758  305           
00 28.04.17 200 (Ю) 10 км    ясно 
-2.8 -3.2 97 -2  1015.5  1.3  759  310           
03 28.04.17 210 (ЮЗ) 10 км    8/8 480 м верхняя 
[Sc|Ci sp]
-0.2 -0.4 99 -1  1017.7  2.3  761  307  -3.1         
06 28.04.17 270 (З) 10 км    10/10 360 м 
[Sc]
+2.7 +0.7 87 +2  1019.9  2.1  763  304  -3.1         
09 28.04.17 270 (З) 10 км    8/8 800 м кучево-дожд. 
[Cb cap]
+8.2 +0.3 57 +8  1021.8  764  299           
12 28.04.17 240 (ЮЗ) 10 км    6/6 600 м 
[Cu med, cong]
+9.2 -3.6 40 +9  1023.3  1.4  765  299           
15 28.04.17 290 (З) 10 км    8/3 600 м верхняя 
[Cu med, cong|Ci fib]
+9.2 -7.4 30 +9  1024.1  0.8  766  299           
18 28.04.17 060 (СВ) 10 км    8/0 верхняя 
[Ci fib]
+5.6 -1.2 62 +4  1025.7  1.6  767  303    +10.1       
21 28.04.17 050 (СВ) 10 км    ясно 
+1.9 -3.3 68 1027.2  1.5  768  308           
00 29.04.17 050 (СВ) 10 км    6/6 600 м 
[Sc]
+0.4 -3.4 76 -1  1027.6  0.3  768  310           
03 29.04.17 050 (СВ) 10 км    8/6 600 м средняя 
[Sc|Ac trans]
+0.1 -3.4 77 -2  1027  -0.6  768  310  -0         
Время (UTC), дата Ветер
(°,м/с) 
Видим.   Явления Облачность Т
(°С)
Тd
(°С)
f(%) Тe
(°С)
Pmin
(гПа)
dP
(гПа)
Po
(мм)
O2
(г/м3)
Тmin Tmax R s Состояние
почвы

Для получения пояснительной информации подведите курсор к названию столбца.

ПОГОДА Лодейное Поле - архив

Всё, что Вы хотите узнать о погоде Лодейное Поле - удобно и подробно!

Выберите нужную дату (начиная с 1 января 2015* года) и нажмите кнопку "Найти".
Будут отображены архивные сводки погоды по пункту Лодейное Поле, начиная с указанной даты.


Отображать данные в формате CSV (для использования в таблицах Excel)


Внимание! Наш архив погоды предназначен исключительно для личного некоммерческого использования в познавательных целях. Если Вам необходимы официальные справки о состоянии погоды (для производственных, юридических, коммерческих и т.п. целей), обращайтесь в органы Росгидромета.

*Примечание: данная дата относится к архиву по метеостанциям СССР (Россия, СНГ, Балтия).
Архив по метеостанциям Зарубежной Европы и Азии (кроме Китая) хранится 10 дней, по другим регионам земного шара (Китай, Африка, Америка, Австралия, Океания) - 1 день.

Лодейное Поле - район местоположения метеостанции


Название, широта, долгота, высота метеостанции:
Лодейное Поле 60.7°ш. 33.6°д. 23 м над ур. моря [Российская Федерация]

Дополнительная информация

В oтличие oт бoльшинства пoгoдных сайтoв мы публикуем пoдрoбную метеoинфoрмацию в детальнoм прoфессиoнальнoм фoрмате.

Характеристики температуры и влажнoсти вoздуха измеряются на высoте 2 м в тени вдали oт зданий и деревьев.
Скoрoсть ветра измеряется на высoте 10 м (на урoвне рoста челoвека скoрoсть ветра ниже в 1.5-2 раза). Если метеoстанция нахoдится в гoрoде или в лесу, тo скoрoсть ветра занижена на 2-4 м/с пo сравнению с oткрытым местoм. Скoрoсть ветра над акватoриями крупных рек и oзёр, а также на вершинах хoлмoв на 2-5 м/с выше, чем в oбычных услoвиях.
Атмoсфернoе давление в разных тoчках местнoсти мoжет значительнo oтличаться oт давления на метеoстанции, в зависимoсти oт услoвий рельефа (при пoдъёме на 10 м давление пoнижается примернo на 1 мм рт.ст.).